Dewpoint
22 17 16 17 17 16 16 16 16 15 17 13 13 13 26 27 27 27 27 26 26 26 27 28 27 27 27 28 28 28 29 30 30 31 31 31 32 33 34 35 37 39 41 43
18 16 18 21 21 20 19 19 18 18 17 14 15 16 26 27 28 27 27 26 26 26 27 27 27 27 27 28 28 28 29 29 29 30 30 31 31 32 33 34 36 38 41 44
16 17 18 19 19 19 19 19 19 17 17 21 19 18 26 27 28 28 28 27 27 27 27 27 27 27 27 28 28 28 29 29 30 30 30 32 32 33 34 33 34 37 39 42
16 18 21 21 19 19 18 20 19 17 19 16 19 14 21 27 28 27 27 27 27 27 27 27 27 26 27 28 28 29 29 29 30 30 30 32 32 32 34 36 35 36 37 39
16 17 16 16 15 20 18 21 20 20 20 21 19 17 21 27 27 28 27 27 27 27 27 27 27 27 28 28 28 29 29 30 30 29 30 33 34 34 35 37 38 38 39 39
17 21 21 20 21 21 21 21 22 25 21 18 17 17 17 25 27 27 28 27 27 27 27 27 27 27 28 28 29 28 29 29 30 31 30 33 34 35 36 36 37 39 41 42
19 19 20 23 19 21 21 19 18 17 19 16 21 19 19 27 28 27 26 27 28 26 26 26 26 26 28 28 29 30 29 29 29 31 32 32 33 34 34 36 37 39 40 42
16 14 22 23 20 19 19 19 18 15 15 16 22 20 21 28 28 28 28 28 26 25 26 25 25 26 27 28 29 30 29 30 31 31 32 33 33 34 34 35 37 38 41 43
20 19 23 23 24 21 19 20 22 23 23 18 20 23 28 28 28 28 27 26 24 24 24 23 24 25 26 27 27 29 30 30 30 30 32 34 33 32 34 35 35 37 39 41
23 20 23 25 25 22 22 23 19 25 21 20 21 21 21 26 27 26 20 23 22 23 22 23 22 24 26 26 27 28 28 29 29 30 32 33 33 32 33 33 33 34 36 38
26 23 22 26 23 20 23 23 28 28 27 20 14 16 28 25 25 23 23 22 20 20 19 21 21 22 24 26 27 27 27 27 27 29 32 32 32 33 31 30 31 32 34 35
28 26 24 22 25 32 27 27 30 23 24 27 23 20 30 28 27 27 26 22 20 21 18 17 19 20 22 24 26 26 26 26 25 26 28 30 30 31 29 28 28 30 32 33
27 25 21 19 25 28 30 32 33 32 28 21 19 20 30 29 28 29 24 20 18 17 19 17 18 19 21 23 25 26 25 25 25 23 24 26 27 27 28 26 27 28 29 31
34 27 24 20 20 29 27 28 28 30 25 21 22 21 27 28 27 27 25 22 19 17 16 16 17 18 20 22 24 25 25 24 23 22 22 23 25 25 26 26 25 25 27 27
31 25 28 28 29 30 28 26 26 24 25 25 23 24 25 29 28 27 25 24 24 23 23 22 18 17 19 22 23 24 24 24 22 20 20 21 23 24 24 24 24 24 24 26
27 19 23 20 25 25 23 23 23 23 24 26 25 24 30 29 28 26 25 24 23 21 21 23 22 22 22 22 22 24 24 24 23 20 20 20 20 19 22 22 23 22 23 24
27 25 22 20 22 23 19 18 22 24 27 27 25 27 28 27 26 25 25 23 22 20 19 21 21 22 21 21 22 23 23 24 23 22 20 20 20 19 18 18 19 20 21 22
26 25 25 22 23 14 18 27 28 28 29 30 27 27 27 27 26 26 25 23 23 20 19 20 18 19 20 21 21 22 23 23 23 23 21 20 19 19 18 18 17 18 20 20
28 25 24 23 20 20 20 22 30 29 27 31 28 26 25 24 24 23 25 23 23 21 19 18 19 19 19 20 21 21 21 22 22 22 22 22 21 19 19 19 18 18 18 19
26 26 23 22 20 16 22 28 30 30 23 29 27 25 24 24 22 21 25 25 21 18 15 13 12 12 13 16 19 20 20 21 21 22 22 23 22 21 19 20 19 19 18 19
23 25 22 22 22 24 26 30 31 23 21 28 27 26 24 23 23 24 25 23 19 14 12 12 10 10 10 13 17 18 19 19 22 22 21 22 23 22 21 20 20 19 18 17
20 24 23 25 23 19 31 28 26 28 28 28 27 26 25 26 25 24 23 19 16 12 10 7 8 8 10 14 17 17 18 18 19 20 21 20 20 21 22 21 20 20 18 16
20 25 25 25 24 30 33 32 32 30 28 28 27 27 27 25 25 25 21 19 15 10 8 5 4 7 11 14 16 16 17 17 17 17 17 18 17 16 18 20 20 21 19 17
29 32 28 28 28 30 33 33 32 30 29 28 28 27 26 24 23 22 21 17 13 9 6 3 4 5 10 14 15 16 17 17 15 15 15 15 15 12 12 16 18 20 19 17
28 33 31 29 30 30 32 34 31 29 28 28 28 28 25 23 19 17 19 20 14 10 7 5 3 4 9 12 14 15 16 16 12 12 14 14 12 11 12 13 15 16 19 18
33 31 29 27 31 30 28 33 30 29 28 28 28 28 24 19 16 20 23 23 13 11 7 5 3 4 7 12 13 14 15 13 12 11 13 14 12 12 12 12 10 14 16 16
Lifted_Index
5 5 5 6 7 7 6 5 5 6 7 7 7 7 8 8 8 8 8 7 7 7 8 9 9 10 10 10 11 11 11 11 11 11 11 10 10 11 11 11 11 11 11 11
5 5 6 7 7 7 6 5 5 6 7 7 7 7 7 8 8 7 7 7 7 7 7 8 9 9 10 10 10 10 10 11 11 12 12 12 12 12 12 12 11 11 11 11
6 6 7 7 7 7 6 6 6 6 7 7 6 6 6 7 7 7 6 6 6 6 6 7 8 9 9 10 10 10 10 11 12 13 13 13 12 12 12 12 12 12 12 12
6 6 7 6 7 6 6 6 6 7 7 6 6 5 6 6 6 5 6 6 6 6 6 7 8 9 9 10 10 11 11 13 14 14 14 13 12 12 12 13 13 13 12 12
6 6 6 6 6 6 6 6 6 6 6 6 5 4 5 5 5 4 5 5 5 5 6 7 8 9 9 10 11 11 12 13 14 15 15 14 14 14 14 14 14 13 12 12
6 6 6 6 5 5 6 5 5 5 5 4 4 4 4 4 4 3 4 4 4 5 7 7 8 9 10 11 11 12 12 12 14 15 16 16 16 16 15 14 13 13 12 12
5 5 5 5 5 4 4 4 3 3 3 3 3 3 3 3 3 3 3 3 4 5 7 7 7 8 10 11 12 11 11 12 13 15 16 16 17 17 16 14 13 12 12 12
4 4 5 4 4 4 3 3 2 1 1 2 2 2 2 2 2 2 3 3 4 6 7 7 8 9 10 12 12 11 11 12 13 14 15 17 18 17 16 14 12 11 11 11
4 4 4 4 3 3 3 3 2 1 1 1 2 2 2 1 1 2 3 3 4 6 7 8 9 9 11 13 13 13 13 13 14 15 16 18 18 18 17 14 12 10 9 9
4 4 4 4 3 3 3 2 2 1 1 1 1 2 1 1 1 2 3 4 5 6 8 9 10 10 12 13 13 14 14 14 14 15 16 18 19 19 17 14 11 9 7 7
4 4 4 4 3 3 2 2 2 1 1 1 1 1 1 1 1 2 3 4 5 7 8 9 10 11 12 13 13 14 15 15 14 15 16 17 18 18 18 15 12 9 7 6
4 4 4 3 3 2 2 2 2 2 2 1 1 1 2 1 2 2 3 4 5 7 8 9 10 11 12 13 14 15 15 15 15 14 14 15 16 17 17 15 13 10 8 8
3 3 3 3 3 2 2 2 2 2 3 2 2 2 2 2 3 2 3 4 6 7 9 10 10 11 11 13 14 15 16 16 15 15 14 14 14 15 15 14 13 12 11 10
3 3 3 3 3 3 3 2 2 3 3 3 3 2 3 3 3 3 3 4 6 7 9 10 10 11 12 13 15 16 16 17 16 16 15 15 15 14 13 13 12 12 12 12
3 3 3 3 3 3 3 3 3 3 3 3 3 3 3 3 3 3 4 5 6 8 9 10 11 11 12 14 16 17 17 17 17 16 16 17 17 16 15 13 12 12 11 11
3 3 3 3 3 4 4 4 4 3 3 3 3 3 2 2 3 3 4 5 6 8 9 10 11 12 13 15 16 17 17 18 17 17 17 18 18 18 17 16 15 14 13 13
3 3 3 3 3 3 3 4 4 3 3 3 3 2 2 2 2 3 4 5 7 8 9 10 11 12 14 15 17 17 18 18 18 17 17 18 18 18 19 18 18 17 16 16
3 3 3 3 3 3 3 3 3 3 3 3 3 2 1 1 2 4 5 6 7 9 10 11 12 13 15 16 17 18 18 18 18 18 18 18 18 18 18 18 17 17 17 17
2 2 2 2 2 3 3 3 3 3 3 3 2 2 1 2 3 4 6 8 9 10 11 12 13 14 15 16 17 17 18 18 18 18 18 18 19 18 18 18 17 18 17 17
2 1 1 1 2 2 2 2 2 2 3 3 2 2 2 3 4 5 7 9 10 11 12 13 14 15 15 16 16 17 17 17 17 18 19 19 19 19 19 19 19 19 19 18
1 1 1 1 1 2 2 2 2 2 2 2 2 2 3 4 5 6 7 9 11 12 13 14 14 14 15 15 16 15 15 16 17 19 19 20 20 20 20 20 20 20 20 19
2 1 1 1 2 2 2 2 2 2 2 2 2 3 4 4 5 6 8 9 10 11 12 13 14 14 14 15 15 15 15 16 17 18 19 19 20 20 21 21 20 20 20 20
2 2 2 2 2 2 2 2 2 2 2 2 3 4 4 5 6 7 7 8 9 10 12 13 13 13 14 15 15 15 15 17 17 17 17 18 19 20 21 21 20 20 20 20
2 2 2 2 2 2 2 2 2 2 2 3 4 5 5 6 6 7 7 8 9 10 11 13 13 13 14 14 15 16 16 17 17 16 17 18 19 20 20 21 21 21 21 21
2 2 2 2 2 2 1 2 2 2 3 4 5 6 7 7 7 7 7 8 9 10 11 13 13 13 14 14 15 16 17 17 16 16 16 17 18 19 20 20 21 21 22 22
2 2 2 2 2 1 1 1 2 3 3 5 6 7 7 7 7 7 7 8 9 10 12 13 14 14 14 14 15 16 17 17 16 15 16 17 17 18 19 20 21 22 23 23